Location: Bruch
(44.2051°N, 0.4120°E)
Time: 04:12:57
(UTC+00:00)

BREEZE-M DEB - Pass Details

Date: 29 November 2020
Orbit: 280 x 15982 km, 49.5° (Epoch: 24 January)

Event Time Altitude Azimuth Distance (km) Brightness Sun altitude
Exits shadow 06:12:49 12° 296° (WNW) 4,521 6.8 -10.4°
Maximum altitude 06:21:33 59° 221° (SW) 869 3.7 -8.9°
Drops below altitude 10° 06:24:34 10° 140° (SE) 1,589 6.3 -8.4°
Sets 06:25:52 0° 135° (SE) 2,209 7.4 -8.2°
